Regional Weather Roundup
Issued by NWS

Home | Current Version | Previous Version | Text Only | Print | Product List | Glossary Off
Versions: 1 2 3 4 5 6 7 8 9 10 11 12 13 14 15 16 17 18 19 20 21 22 23 24 25 26 27 28 29 30 31 32 33 34 35 36 37 38 39 40 41 42 43 44 45 46 47 48 49 50

000
ASUS43 KLSX 300459
RWRMO

WEATHER SUMMARY FOR MISSOURI
NATIONAL WEATHER SERVICE SPRINGFIELD MO
1200 AM CDT THU JUL 30 2015

NOTE: "FAIR" INDICATES FEW OR NO CLOUDS BELOW 12,000 FEET WITH NO
       SIGNIFICANT WEATHER AND/OR OBSTRUCTIONS TO VISIBILITY.
       CURRENT SKY AND/OR WEATHER CONDITIONS ARE NOT AVAILABLE FOR
       CHILLICOTHE AND FARMINGTON.

MOZ001>031-035>038-043-044-053-054-300600-
...NORTHERN AND WESTERN MISSOURI...

CITY           SKY/WX    TMP DP  RH WIND       PRES   REMARKS
KANSAS CTY INT PTCLDY    70  63  78 N3        30.18R
KANSAS C DTWN  PTCLDY    74  66  76 N3        30.16R
LEE`S SUMMIT   PTCLDY    73  65  75 NE3       30.18R
ST JOSEPH      CLEAR     68  66  93 CALM      30.17R
CHILLICOTHE      N/A     67  65  93 CALM      30.18R
KIRKSVILLE     CLEAR     65  62  90 W3        30.17R

$$
MOZ066>068-077>081-088>096-101>105-300600-
...SOUTHWEST MISSOURI...

CITY           SKY/WX    TMP DP  RH WIND       PRES   REMARKS
SPRINGFIELD    CLEAR     76  68  76 N5        30.15R
JOPLIN         PTCLDY    77  67  71 NE6       30.14S

$$
MOZ032>034-039>042-045>050-055>058-069>072-300600-
...CENTRAL MISSOURI...

CITY           SKY/WX    TMP DP  RH WIND       PRES   REMARKS
COLUMBIA       CLEAR     69  65  86 N7        30.16R
JEFFERSON CITY CLEAR     71  64  78 NW6       30.14R
ROLLA          CLEAR     68  62  81 NE3       30.14S
SEDALIA        CLEAR     71  65  81 N5        30.17R
OSAGE BEACH    CLEAR     70  63  78 NE3       30.15S

$$
MOZ051-052-059>065-300600-
...EAST CENTRAL MISSOURI...

CITY           SKY/WX    TMP DP  RH WIND       PRES   REMARKS
ST LOUIS INTL  PTCLDY    74  61  63 NW5       30.12S
SPIRIT OF STL  CLEAR     68  66  93 CALM      30.11S
ST CHARLES     CLEAR     73  63  70 NW5       30.11S

$$
MOZ072>076-082>087-097>100-106>115-300600-
...SOUTH CENTRAL AND SOUTHEAST MISSOURI...

CITY           SKY/WX    TMP DP  RH WIND       PRES   REMARKS
CAPE GIRARDEAU NOT AVBL
FARMINGTON     CLEAR     73  64  73 N3        30.16S
POPLAR BLUFF   CLEAR     79  71  76 N8        30.07R
WEST PLAINS    PTCLDY    75  68  78 NE7       30.15R

$$



USA.gov is the U.S. government's official web portal to all federal, state and local government web resources and services.